Location: Phoenix
(33.4480°N, 112.0730°W)
Time: 03:15:55
(UTC-07:00)

Cosmos 1470 Rocket - Visible Passes

Search period start: 21 April 2014 00:00
Search period end: 01 May 2014 00:00
Orbit: 605 x 637 km, 82.5° (Epoch: 20 April)

Date Brightness Start Highest point End Pass type
(mag) Time Alt. Az. Time Alt. Az. Time Alt. Az.
21 Apr 6.4 03:38:24 10° ESE 03:40:56 15° E 03:43:27 10° NE visible
21 Apr 4.2 05:14:22 10° SSW 05:18:27 35° W 05:22:33 10° NNW visible
22 Apr 5.4 03:54:48 10° SSE 03:58:40 29° E 04:02:31 10° NNE visible
23 Apr 4.1 04:12:29 12° S 04:16:30 61° E 04:20:53 10° NNE visible
24 Apr 3.6 04:31:00 17° SSW 04:34:25 64° W 04:38:49 10° N visible
25 Apr 6.2 03:12:13 11° SE 03:14:50 17° E 03:17:40 10° NE visible
25 Apr 4.4 04:49:26 15° SW 04:52:25 31° W 04:56:22 10° NNW visible
26 Apr 5.1 03:30:35 22° SE 03:32:35 33° E 03:36:33 10° NNE visible
26 Apr 5.3 05:07:48 10° WSW 05:10:31 16° WNW 05:13:17 10° NW visible
27 Apr 3.8 03:48:54 40° SSE 03:50:25 69° E 03:54:49 10° NNE visible
28 Apr 3.6 04:07:09 42° SW 04:08:20 56° W 04:12:41 10° N visible
29 Apr 5.8 02:48:09 19° E 02:48:42 19° E 02:51:47 10° NE visible
29 Apr 4.6 04:25:22 25° W 04:26:21 28° WNW 04:30:09 10° NNW visible
30 Apr 4.7 03:06:20 37° E 03:06:27 37° E 03:10:31 10° NNE visible
30 Apr 5.4 04:43:32 14° W 04:44:28 14° WNW 04:46:51 10° NW visible
